AO-07 1 07530U 74089B 24284.54933330 -.00000026 00000-0 12600-3 0 9994 2 07530 101.9878 280.3131 0011925 223.3328 253.5470 12.53680615283736 UO-11 1 14781U 84021B 24284.82179114 .00011364 00000-0 12522-2 0 9998 2 14781 97.7206 250.7677 0009718 61.7069 298.5127 14.87652753186672 AO-27 1 22825U 93061C 24284.38395379 .00000808 00000-0 32682-3 0 9995 2 22825 98.7750 338.2920 0009498 101.2515 258.9735 14.30611341619086 FO-29 1 24278U 96046B 24284.53618430 .00000078 00000-0 11768-3 0 9999 2 24278 98.5813 204.0720 0348936 249.4429 106.8952 13.53215970390033 NOAA-15 1 25338U 98030A 24284.81655128 .00001526 00000-0 64768-3 0 9995 2 25338 98.5615 309.5002 0010027 353.4489 6.6559 14.26748809373926 GO-32 1 25397U 98043D 24284.46297953 .00000667 00000-0 30970-3 0 9996 2 25397 98.9380 252.9922 0001603 140.9998 219.1296 14.24149983363823 ISS 1 25544U 98067A 24284.82270477 .00058831 00000-0 10430-2 0 9992 2 25544 51.6375 102.6414 0009203 57.0496 303.1376 15.49634632476487 NO-44 1 26931U 01043C 24284.57243748 .00001395 00000-0 55618-3 0 9995 2 26931 67.0528 33.4230 0007628 265.2863 94.7367 14.31427087202468 SO-50 1 27607U 02058C 24284.25411074 .00007660 00000-0 10218-2 0 9994 2 27607 64.5543 227.6469 0028258 50.2369 310.1218 14.79926036173348 CO-55 1 27844U 03031E 24284.44438874 .00001915 00000-0 86031-3 0 9991 2 27844 98.6804 289.9007 0009933 163.4401 196.7103 14.23535534104186 CO-57 1 27848U 03031J 24284.00324678 .00001535 00000-0 70130-3 0 9994 2 27848 98.6831 289.6425 0009485 180.9311 179.1851 14.22935917103864 RS-22 1 27939U 03042A 24284.84825094 .00011154 00000-0 18278-2 0 9999 2 27939 98.3053 83.0421 0012580 57.9678 78.3730 14.70859267125270 NOAA-18 1 28654U 05018A 24284.81863000 .00001537 00000-0 84102-3 0 9999 2 28654 98.8661 0.7861 0015225 96.0026 264.2882 14.13370786999598 CO-58 1 28895U 05043F 24284.34849899 .00008209 00000-0 14095-2 0 9998 2 28895 98.2178 60.5252 0015064 357.1309 2.9807 14.68867828 11357 CO-65 1 32785U 08021C 24284.86019327 .00039649 00000-0 32345-2 0 9992 2 32785 97.7706 249.4730 0007741 314.8102 45.2491 14.99289272892861 AAUSAT2 1 32788U 08021F 24284.46453642 .00055831 00000-0 20620-2 0 9997 2 32788 97.6032 265.7909 0008803 110.0116 250.2071 15.27508576895953 CO-66 1 32791U 08021J 24284.83956588 .00076016 00000-0 48691-2 0 9995 2 32791 97.7039 255.7391 0001645 292.2508 67.8545 15.08205697894004 RS-30 1 32953U 08025A 24284.80242417 .00000073 00000-0 45646-3 0 9993 2 32953 82.5088 17.5673 0019347 209.7786 150.2194 12.43150294743497 PRISM 1 33493U 09002B 24284.12005195 .00070979 00000-0 24317-2 0 9997 2 33493 98.1889 342.3338 0010296 207.1603 152.9098 15.29882816856542 NOAA-19 1 33591U 09005A 24284.78664131 .00000767 00000-0 43447-3 0 9996 2 33591 99.0340 341.7432 0013175 329.8962 30.1452 14.13150831807959 SRMSAT 1 37841U 11058D 24284.39363362 .00001055 00000-0 43158-3 0 9998 2 37841 19.9711 179.9245 0011644 281.1986 235.3347 14.11237349670859 RS-40 1 38735U 12041C 24284.87744716 .00000053 00000-0 31229-3 0 9996 2 38735 82.4706 97.7513 0016977 329.0543 30.9535 12.42617784553632 ZACUBE-1 1 39417U 13066B 24284.40634885 .00016125 00000-0 15713-2 0 9992 2 39417 97.7468 238.0233 0049987 136.8262 223.6893 14.91607300588749 Delfi-N3xt 1 39428U 13066N 24284.51253114 .00021788 00000-0 25705-2 0 9991 2 39428 97.8316 199.9858 0098487 74.2974 286.9077 14.81259039583142 GOMX-1 1 39430U 13066Q 24284.84404539 .00021395 00000-0 34496-2 0 9990 2 39430 97.7122 152.2016 0135718 244.6155 114.0947 14.65442058579970 LO-74 1 39440U 13066AA 24284.59301289 .00013847 00000-0 15451-2 0 9994 2 39440 97.8209 225.9544 0064834 256.0936 103.3062 14.85588039585457 AO-73 1 39444U 13066AE 24284.85753771 .00057836 00000-0 51066-2 0 9992 2 39444 97.7330 241.9390 0047868 114.1829 246.4407 14.95236778587966 DTUSAT-2 1 40030U 14033W 24284.44668089 .00024085 00000-0 18619-2 0 9999 2 40030 98.0194 240.2361 0011431 142.6443 217.5577 15.01448720559973 EO-80 1 40032U 14033Y 24284.41250616 .00024506 00000-0 18905-2 0 9997 2 40032 98.0159 240.1647 0012694 97.6376 262.6290 15.01511651559942 XW-2C 1 40906U 15049H 24284.84279961 .00231640 00000-0 32717-2 0 9992 2 40906 97.4692 305.5435 0004537 214.9654 145.1303 15.55746062502367 XW-2D 1 40907U 15049J 24284.77986646 .00256464 00000-0 16220-2 0 9992 2 40907 97.4573 309.9429 0004544 181.4426 178.6827 15.75843577502712 LILACSAT-2 1 40908U 15049K 24284.84803621 .00047312 00000-0 16148-2 0 9991 2 40908 97.5246 294.6658 0009512 310.1542 49.8865 15.30132727501152 XW-2B 1 40911U 15049N 24284.77100231 .00358189 00000-0 24908-2 0 9994 2 40911 97.4560 309.7646 0004255 186.8221 173.2985 15.73351546502560 IO-86 1 40931U 15052B 24270.29994034 .00002074 00000-0 19195-3 0 9996 2 40931 5.9998 350.0993 0012711 76.7416 283.4129 14.78150863486449 ChubuSat-2 1 41338U 16012B 24284.48592092 .00014228 00000-0 83097-3 0 9995 2 41338 31.0022 7.5821 0009810 314.9229 45.0613 15.10688547475033 ChubuSat-3 1 41339U 16012C 24284.48164184 .00012563 00000-0 75055-3 0 9998 2 41339 31.0087 6.9309 0010020 318.2524 41.7349 15.09847582474918 Horyu-4 1 41340U 16012D 24284.42399725 .00038567 00000-0 16443-2 0 9992 2 41340 31.0019 302.0354 0007627 79.1240 281.0259 15.21732384475683 Lapan A3 1 41603U 16040E 24284.85496016 .00017579 00000-0 66809-3 0 9995 2 41603 97.1428 293.4390 0013420 56.8185 303.4340 15.26768292460869 Pratham 1 41783U 16059A 24284.48092421 .00003896 00000-0 72279-3 0 9990 2 41783 97.8344 298.4252 0032650 17.6212 342.6116 14.65429822429424 CAS-2T 1 41847U 16066G 24284.45506688 .00007247 00000-0 10521-2 0 9996 2 41847 98.4494 354.8935 0351362 189.8703 169.5462 14.42011891416103 CAS-4B 1 42759U 17034B 24284.44591211 .00040826 00000-0 11625-2 0 9996 2 42759 43.0156 292.2498 0011645 47.5267 312.6570 15.35368254405074 CAS-4A 1 42761U 17034D 24284.37113644 .00057592 00000-0 16237-2 0 9993 2 42761 43.0194 290.9194 0011611 58.5170 301.6818 15.35545977405066 D-SAT 1 42794U 17036AF 24284.38757988 .00018285 00000-0 11811-2 0 9996 2 42794 97.4899 262.2671 0107590 115.7161 245.5220 15.03546912398011 TechnoSat 1 42829U 17042E 24284.72814634 .00009765 00000-0 82296-3 0 9991 2 42829 97.3901 99.4805 0013304 47.5426 312.6920 14.98308542394463 AO-91 1 43017U 17073E 24284.58615496 .00022491 00000-0 13049-2 0 9994 2 43017 97.5551 156.1243 0197606 266.8490 91.0108 14.97108232372902 TianYi 6 1 43158U 18008D 24284.88743490 .01443868 10907-2 35619-2 0 9990 2 43158 97.2458 336.1608 0003533 264.2141 95.8733 15.96246421372512 S-Net D 1 43186U 18014G 24284.30095462 .00016535 00000-0 11089-2 0 9996 2 43186 97.5756 184.1897 0009490 348.1562 11.9441 15.06888832365825 S-Net B 1 43187U 18014H 24284.30387896 .00016411 00000-0 11008-2 0 9996 2 43187 97.5766 184.1509 0010042 342.7228 17.3656 15.06879443365827 S-Net A 1 43188U 18014J 24284.30199033 .00016197 00000-0 10862-2 0 9999 2 43188 97.5768 184.2715 0009978 343.4986 16.5916 15.06890965365827 S-Net C 1 43189U 18014K 24284.43872576 .00017073 00000-0 11444-2 0 9995 2 43189 97.5791 184.3767 0011301 333.4636 26.6011 15.06886363364392 Ten-Koh 1 43677U 18084G 24284.40065558 .00011535 00000-0 98974-3 0 9996 2 43677 98.0789 81.5334 0013505 1.9393 358.1878 14.97593966323954 PO-101 1 43678U 18084H 24284.81041064 .00011502 00000-0 10223-2 0 9992 2 43678 98.0861 86.3543 0009195 17.9653 342.1890 14.96257324324207 QO-100 1 43700U 18090A 24284.83747926 .00000148 00000-0 00000+0 0 9990 2 43700 0.0166 174.8072 0001126 35.6492 136.7950 1.00271902 21766 MinXSS-2 1 43758U 18099A 24284.13421052 .00030758 00000-0 17049-2 0 9998 2 43758 97.5400 344.9671 0013965 282.3162 77.6506 15.13648576320143 AO-95 1 43770U 18099N 24284.42171762 .00028502 00000-0 17850-2 0 9998 2 43770 97.5320 339.9608 0011724 335.3276 24.7390 15.09272891319924 RANGE-B 1 43772U 18099Q 24284.13493624 .00034136 00000-0 18076-2 0 9993 2 43772 97.5098 343.6888 0004514 221.2525 138.8367 15.15327045320099 RANGE-A 1 43773U 18099R 24284.59089780 .00012488 00000-0 89260-3 0 9998 2 43773 97.4882 334.1802 0010720 305.2702 54.7521 15.04563523319779 MOVE-II 1 43780U 18099Y 24284.72745534 .00070627 00000-0 27941-2 0 9993 2 43780 97.5062 347.1896 0004368 289.0220 71.0544 15.25172571320478 SNUSat 2 1 43782U 18099AA 24284.38183705 .00022666 00000-0 14760-2 0 9998 2 43782 97.4991 338.4217 0012535 267.9812 91.9981 15.07880184319916 SnugLite 1 43784U 18099AC 24284.43196990 .00029137 00000-0 18146-2 0 9998 2 43784 97.4815 337.7651 0002700 273.2242 86.8678 15.09525310320004 ITASat 1 1 43786U 18099AE 24284.11762118 .00020007 00000-0 13342-2 0 9996 2 43786 97.4951 338.2419 0015431 323.9766 36.0420 15.06994153319860 EAGLET 1 1 43790U 18099AJ 24284.42840100 .00015437 00000-0 10923-2 0 9996 2 43790 97.5159 339.0074 0011805 300.7633 59.2431 15.04882732319595 ESEO 1 43792U 18099AL 24284.40242854 .00007170 00000-0 57033-3 0 9997 2 43792 97.4972 335.0467 0005876 268.4292 91.6259 15.00692212319476 CSIM 1 43793U 18099AM 24284.61283366 .00059533 00000-0 24025-2 0 9998 2 43793 97.5180 348.8742 0009701 265.8857 94.1271 15.24528463320304 JO-97 1 43803U 18099AX 24284.41355298 .00029336 00000-0 17377-2 0 9992 2 43803 97.5063 340.7081 0007557 264.2309 95.8060 15.11328378320072 Suomi 100 1 43804U 18099AY 24284.13809815 .00024708 00000-0 15121-2 0 9994 2 43804 97.5128 340.1831 0013176 265.9508 94.0215 15.10131048320006 ISAT 1 43879U 18111D 24284.25284739 .00036583 00000-0 19174-2 0 9992 2 43879 97.6052 189.6727 0010605 338.6362 21.4426 15.15635292316812 UWE-4 1 43880U 18111E 24284.46162767 .00023889 00000-0 13103-2 0 9994 2 43880 97.5982 189.5757 0014520 344.3693 15.7088 15.14074203316849 Sparrow 1 43881U 18111F 24283.78549734 .00033085 00000-0 17068-2 0 9995 2 43881 97.6156 191.3447 0010353 22.9831 337.1862 15.16220299316812 Prox-1 1 44339U 19036A 24284.82685030 .00076512 00000-0 12066-1 0 9991 2 44339 23.9971 199.4332 0008152 216.2143 143.7800 14.70917663282359 SONATE 1 44400U 19038Q 24284.57749833 .00050020 00000-0 11331-2 0 9997 2 44400 97.7165 284.4933 0016279 62.0380 298.2512 15.42811297291816 Taurus 1 1 44530U 19059C 24284.77235920 .00054566 00000-0 11592-1 0 9990 2 44530 98.5853 48.3004 0009938 62.5121 297.7086 14.58758890268595 Duchifat 3 1 44854U 19089C 24284.60505578 .00040780 00000-0 16826-2 0 9992 2 44854 36.9540 65.2875 0008627 358.7919 1.2808 15.23105707265768 TO-108 1 44881U 19093C 24284.81053224 .00007840 00000-0 93666-3 0 9994 2 44881 97.8189 359.3517 0013019 307.8870 52.1167 14.84416372260199 FloripaSat 1 1 44885U 19093G 24284.75413140 .00017580 00000-0 16970-2 0 9992 2 44885 97.8333 6.5899 0011029 292.9228 67.0826 14.92871352260591 RS-44 1 44909U 19096E 24284.58550696 .00000039 00000-0 10516-3 0 9993 2 44909 82.5261 28.0814 0218235 141.2315 220.4677 12.79734846223739 UPMSat 2 1 46276U 20061E 24284.14996800 .00052279 00000-0 12661-2 0 9994 2 46276 97.2830 349.4480 0002230 98.8624 261.2875 15.40923522227838 AmicalSat 1 46287U 20061R 24284.18707276 .00141155 00000-0 21975-2 0 9997 2 46287 97.3328 352.4428 0002622 173.7561 186.3725 15.53392460227305 SALSAT 1 46495U 20068K 24284.44385748 .00023492 00000-0 12181-2 0 9992 2 46495 97.8307 246.9257 0010546 281.2106 78.7940 15.16119061221758 UVSQ-SAT 1 47438U 21006AB 24284.72970095 .00628717 00000-0 22071-2 0 9999 2 47438 97.2987 348.7950 0004081 211.8895 148.2130 15.87711952206758 SOMP 2b 1 47445U 21006AJ 24284.66749054 .00240727 00000-0 18444-2 0 9999 2 47445 97.2991 345.8973 0004914 176.4892 183.6406 15.71379979206595 IDEASSat 1 47458U 21006AX 24284.65435152 .00160083 00000-0 17629-2 0 9993 2 47458 97.3122 345.8103 0005369 166.7342 193.4059 15.62592585206478 CubeSX-Sirius-HSE 1 47951U 21022V 24284.86119288 .00182423 00000-0 53023-2 0 9991 2 47951 97.4424 183.4363 0015396 87.7445 272.5561 15.34607811196252 CubeSX-HSE 1 47952U 21022W 24284.80274439 .00170032 00000-0 49156-2 0 9991 2 47952 97.4423 183.4980 0015556 87.0459 273.2564 15.34826906196252 KSU-Cubesat 1 47954U 21022Y 24284.69444857 .00084175 00000-0 20651-2 0 9994 2 47954 97.4428 185.4057 0014380 82.6508 277.6371 15.40285375196087 GRBAlpha 1 47959U 21022AD 24284.82641095 .00176411 00000-0 50877-2 0 9995 2 47959 97.4421 183.6878 0015401 87.0066 273.2939 15.34878968195089 Orbicraft-Zorkiy 1 47960U 21022AE 24284.82300956 .00215037 00000-0 54982-2 0 9994 2 47960 97.4465 185.4827 0014572 84.4207 275.8700 15.38487169195862 TUBIN 1 48900U 21059X 24284.85524161 .00092414 00000-0 25252-2 0 9998 2 48900 97.6596 73.4612 0005891 39.8023 320.3651 15.37018989182648 LEDSAT 1 49069U 21073D 24284.72353212 .00051637 00000-0 16565-2 0 9993 2 49069 97.4246 355.5044 0016087 231.5126 128.4673 15.32029467174091 CUTE 1 49263U 21088D 24284.44607630 .00073004 00000-0 26773-2 0 9994 2 49263 97.4834 350.1357 0012200 44.3331 315.8882 15.27622876167182 TeikyoSat 4 1 49396U 21102B 24284.61183641 .00007406 00000-0 51838-3 0 9992 2 49396 97.4465 325.5974 0011895 239.4369 120.5685 15.05483537160110 Z-Sat 1 49399U 21102E 24284.83208166 .00028971 00000-0 17540-2 0 9990 2 49399 97.4182 327.6955 0018600 215.9875 144.0103 15.10414815160433 KOSEN 1 1 49402U 21102H 24284.61414721 .00019439 00000-0 10609-2 0 9995 2 49402 97.4108 329.3921 0017484 197.5591 162.5038 15.14250818160591 HO-113 1 50466U 21131B 24284.83126091 .00005919 00000-0 18885-2 0 9995 2 50466 98.5232 9.3608 0005028 133.1458 227.0151 14.40086667146649 IRIS-A 1 51044U 22002BN 24284.43092150 .00081532 00000-0 20025-2 0 9994 2 51044 97.3697 351.0456 0004183 351.9068 8.2110 15.40358073152106 Planetum 1 1 52738U 22057G 24284.83897402 .00399533 00000-0 39224-2 0 9996 2 52738 97.5716 56.7177 0000323 268.8203 91.3019 15.64778415132481 Foresail-1 1 52766U 22057AL 24284.34114684 .00074133 00000-0 17978-2 0 9995 2 52766 97.5938 53.2591 0007684 83.4371 276.7749 15.40755615132125 SNUGLITE 2 1 52899U 22065F 24284.37355205 .00006575 00000-0 13286-2 0 9993 2 52899 98.1363 63.4536 0008243 147.7654 212.4052 14.61676444121084 IO-117 1 53106U 22080B 24281.96479996 -.00000003 00000-0 00000-0 0 9997 2 53106 70.1376 153.3488 0008243 81.8360 278.3235 6.42557544 52511 FO-118 1 54684U 22167C 24284.82813052 .00248584 00000-0 54342-2 0 9995 2 54684 97.6158 73.3855 0006439 96.2153 263.9828 15.43187939102049 SSS-2B 1 56184U 23054G 24284.74483919 .00162356 00000-0 20266-2 0 9994 2 56184 97.3469 184.7729 0009563 101.3141 258.9190 15.59269941 84014 SO-120 1 56992U 23084BU 24284.60886255 .00099208 00000-0 22675-2 0 9990 2 56992 97.5382 46.2307 0009491 323.5108 36.5491 15.42422453 73879 MRC-100 1 56993U 23084BV 24284.33662339 .00118233 00000-0 22318-2 0 9990 2 56993 97.5367 46.9249 0009258 314.5200 45.5292 15.47981034 73902 UmKA 1 (RS40S) 1 57172U 23091G 24284.87568529 .00040964 00000-0 24984-2 0 9999 2 57172 97.5983 335.8390 0017722 87.5787 272.7471 15.10078843 70933 CubeBel-2 (EU11S) 1 57175U 23091K 24284.88026430 .00053378 00000-0 31170-2 0 9991 2 57175 97.5983 335.9745 0015860 98.0366 262.2664 15.11608439 70942 VERONIKA 1 58261U 23174F 24284.85131565 .00176165 00000-0 60327-2 0 9999 2 58261 97.4480 359.0598 0010822 192.6798 167.4172 15.29420546 51338 KAFASAT 1 58317U 23174BP 24284.80239876 .00219633 00000-0 61770-2 0 9991 2 58317 97.4419 0.2525 0009537 170.4859 189.6567 15.35557733 51420 ENSO 1 58470U 23185J 24284.86492644 .00106494 00000-0 35895-2 0 9992 2 58470 97.4122 350.7629 0010483 224.6974 135.3423 15.30248448 47789 EIRSAT-1 1 58472U 23185L 24284.83406093 .00111674 00000-0 35930-2 0 9990 2 58472 97.4114 350.9259 0010112 224.5771 135.4658 15.31733327 47794 SO-121 1 58567U 23174CY 24283.96914257 .00409038 00000-0 44644-2 0 9998 2 58567 97.4346 1.8013 0008114 211.9483 148.1284 15.62007421 51452 SONATE-2 1 59112U 24043Q 24284.86189130 .00068309 00000-0 28519-2 0 9990 2 59112 97.4905 47.8580 0013143 248.5632 111.4203 15.23302085 33386 MO-122 1 60209U 24125G 24284.57789504 .00024821 00000-0 10406-2 0 9996 2 60209 97.3083 134.6307 0022849 280.7184 79.1481 15.23254544 14952 GRBBeta 1 60237U 24128C 24284.14270161 .00014757 00000-0 12360-2 0 9995 2 60237 61.9935 202.3598 0020248 349.8163 10.2513 14.98502236 13817 Curium One 1 60242U 24128H 24284.84952256 .00058896 00000-0 48599-2 0 9995 2 60242 61.9837 200.1226 0020629 337.2380 22.7792 14.98439157 13923 ROBUSTA-3A 1 60243U 24128J 24284.86261413 .00059276 00000-0 49251-2 0 9995 2 60243 61.9902 200.2592 0018779 333.2286 26.7832 14.98198319 13929 CatSat 1 60246U 24125J 24284.56310686 .00021751 00000-0 92447-3 0 9992 2 60246 97.2900 135.6903 0048986 230.5897 129.0998 15.21944566 13064 SR-0 DemoSAT 1 60455U 24147B 24284.77792727 .00748398 00000-0 83189-2 0 9996 2 60455 37.3751 309.5078 0023642 118.3603 241.9553 15.59271650 8580 Binar 4 1 60952U 98067WS 24284.73318551 .00355509 00000-0 29366-2 0 9990 2 60952 51.6297 100.5434 0001543 280.3849 79.6973 15.68646132 6603 CosmoGirlSat 1 60953U 98067WT 24284.73361147 .00155377 00000-0 17552-2 0 9995 2 60953 51.6331 101.3014 0004921 91.3872 268.7685 15.61433082 6595 Sakura 1 60954U 98067WU 24284.78035551 .00349506 00000-0 36159-2 0 9991 2 60954 51.6325 100.8638 0003693 93.7892 266.3525 15.63034233 6604 Binar 2 1 60956U 98067WW 24284.49666360 .00296890 00000-0 27621-2 0 9990 2 60956 51.6250 101.9524 0000962 117.1050 243.0043 15.65893681 6555 Binar 3 1 60957U 98067WX 24284.52655416 .00322510 00000-0 26080-2 0 9992 2 60957 51.6272 101.4087 0001664 290.6806 69.4012 15.69265939 8556 /EX
